| time (UTC) | temp F | wind direction | speed MPH | gust MPH | rain 1hr in | rain 24hr in | rain mn in | humidity % | barometer mb |
| 20260831034004 | 85 | 149 | 6.0 | 11.0 | 0.00 | 0.00 | 0.00 | 68 | 1014.6 |
| 20260831033504 | 85 | 151 | 6.0 | 11.0 | 0.00 | 0.00 | 0.00 | 67 | 1014.5 |
| 20260831033004 | 86 | 151 | 6.0 | 11.0 | 0.00 | 0.00 | 0.00 | 67 | 1014.4 |
| 20260831032504 | 86 | 150 | 6.0 | 11.0 | 0.00 | 0.00 | 0.00 | 66 | 1014.5 |
| 20260831032004 | 86 | 147 | 6.0 | 12.0 | 0.00 | 0.00 | 0.00 | 66 | 1014.4 |
| 20260831031504 | 86 | 146 | 6.0 | 12.0 | 0.00 | 0.00 | 0.00 | 65 | 1014.4 |
| 20260831031004 | 87 | 145 | 6.0 | 12.0 | 0.00 | 0.00 | 0.00 | 64 | 1014.2 |
| 20260831030504 | 87 | 143 | 7.0 | 12.0 | 0.00 | 0.00 | 0.00 | 64 | 1014.2 |
| 20260831030004 | 87 | 145 | 6.0 | 12.0 | 0.00 | 0.00 | 0.00 | 64 | 1014.1 |
| 20260831025505 | 87 | 147 | 6.0 | 10.0 | 0.00 | 0.00 | 0.00 | 63 | 1014.0 |
| 20260831025004 | 87 | 146 | 6.0 | 11.0 | 0.00 | 0.00 | 0.00 | 63 | 1013.9 |
| 20260831024505 | 88 | 145 | 7.0 | 12.0 | 0.00 | 0.00 | 0.00 | 62 | 1013.9 |
| 20260831024004 | 88 | 144 | 7.0 | 12.0 | 0.00 | 0.00 | 0.00 | 61 | 1013.7 |
| 20260831023504 | 88 | 146 | 6.0 | 12.0 | 0.00 | 0.00 | 0.00 | 60 | 1013.6 |
| 20260831023004 | 88 | 149 | 5.0 | 12.0 | 0.00 | 0.00 | 0.00 | 59 | 1013.5 |
| 20260831022504 | 88 | 149 | 6.0 | 11.0 | 0.00 | 0.00 | 0.00 | 59 | 1013.5 |
| 20260831022004 | 89 | 150 | 6.0 | 11.0 | 0.00 | 0.00 | 0.00 | 58 | 1013.4 |
| 20260831021504 | 89 | 151 | 6.0 | 11.0 | 0.00 | 0.00 | 0.00 | 58 | 1013.3 |
| 20260831021004 | 89 | 150 | 6.0 | 11.0 | 0.00 | 0.00 | 0.00 | 57 | 1013.2 |
| 20260831020525 | 89 | 149 | 6.0 | 10.0 | 0.00 | 0.00 | 0.00 | 57 | 1013.0 |
| 20260831020004 | 90 | 150 | 6.0 | 11.0 | 0.00 | 0.00 | 0.00 | 57 | 1012.8 |
| 20260831015504 | 90 | 152 | 6.0 | 11.0 | 0.00 | 0.00 | 0.00 | 57 | 1012.8 |
| 20260831015004 | 90 | 153 | 6.0 | 12.0 | 0.00 | 0.00 | 0.00 | 56 | 1012.7 |
| 20260831014504 | 90 | 151 | 6.0 | 12.0 | 0.00 | 0.00 | 0.00 | 56 | 1012.7 |
| 20260831014004 | 90 | 153 | 5.0 | 10.0 | 0.00 | 0.00 | 0.00 | 57 | 1012.6 |
| 20260831013504 | 90 | 157 | 5.0 | 10.0 | 0.00 | 0.00 | 0.00 | 57 | 1012.6 |
| 20260831013004 | 90 | 156 | 5.0 | 9.0 | 0.00 | 0.00 | 0.00 | 57 | 1012.5 |
| 20260831012505 | 90 | 155 | 4.0 | 8.0 | 0.00 | 0.00 | 0.00 | 57 | 1012.4 |
| 20260831012025 | 90 | 149 | 4.0 | 8.0 | 0.00 | 0.00 | 0.00 | 57 | 1012.4 |
| 20260831011526 | 90 | 151 | 5.0 | 8.0 | 0.00 | 0.00 | 0.00 | 57 | 1012.3 |
| 20260831011004 | 90 | 158 | 4.0 | 8.0 | 0.00 | 0.00 | 0.00 | 58 | 1012.3 |
| 20260831010526 | 90 | 158 | 4.0 | 7.0 | 0.00 | 0.00 | 0.00 | 58 | 1012.3 |
| 20260831010004 | 90 | 154 | 4.0 | 7.0 | 0.00 | 0.00 | 0.00 | 58 | 1012.3 |
| 20260831005504 | 90 | 153 | 4.0 | 8.0 | 0.00 | 0.00 | 0.00 | 57 | 1012.3 |
| 20260831005004 | 91 | 152 | 5.0 | 8.0 | 0.00 | 0.00 | 0.00 | 57 | 1012.3 |
| 20260831004504 | 91 | 147 | 5.0 | 10.0 | 0.00 | 0.00 | 0.00 | 57 | 1012.2 |
| 20260831004004 | 91 | 145 | 6.0 | 10.0 | 0.00 | 0.00 | 0.00 | 57 | 1012.1 |
| 20260831003504 | 91 | 150 | 5.0 | 10.0 | 0.00 | 0.00 | 0.00 | 57 | 1012.1 |
| 20260831003025 | 91 | 155 | 6.0 | 11.0 | 0.00 | 0.00 | 0.00 | 57 | 1012.1 |
| 20260831002504 | 91 | 157 | 6.0 | 11.0 | 0.00 | 0.00 | 0.00 | 56 | 1012.0 |
| 20260831002004 | 92 | 162 | 7.0 | 12.0 | 0.00 | 0.00 | 0.00 | 55 | 1011.9 |
| 20260831001504 | 92 | 165 | 7.0 | 14.0 | 0.00 | 0.00 | 0.00 | 54 | 1011.9 |
| 20260831001005 | 93 | 160 | 8.0 | 14.0 | 0.00 | 0.00 | 0.00 | 54 | 1011.9 |
| 20260831000504 | 94 | 150 | 8.0 | 14.0 | 0.00 | 0.00 | 0.00 | 53 | 1011.8 |
| 20260831000004 | 94 | 142 | 6.0 | 12.0 | 0.00 | 0.00 | 0.00 | 50 | 1011.8 |
| 20260830235504 | 95 | 133 | 4.0 | 10.0 | 0.00 | 0.00 | 0.00 | 46 | 1011.7 |
| 20260830235004 | 95 | 125 | 3.0 | 10.0 | 0.00 | 0.00 | 0.00 | 46 | 1011.7 |
| 20260830234504 | 96 | 130 | 4.0 | 12.0 | 0.00 | 0.00 | 0.00 | 45 | 1011.6 |
| 20260830234004 | 96 | 129 | 6.0 | 12.0 | 0.00 | 0.00 | 0.00 | 45 | 1011.6 |
| 20260830233525 | 97 | 122 | 6.0 | 13.0 | 0.00 | 0.00 | 0.00 | 44 | 1011.6 |
| 20260830233004 | 98 | 111 | 4.0 | 13.0 | 0.00 | 0.00 | 0.00 | 44 | 1011.6 |
| 20260830232504 | 96 | 113 | 2.0 | 5.0 | 0.00 | 0.00 | 0.00 | 44 | 1011.6 |
| 20260830232004 | 96 | 147 | 3.0 | 6.0 | 0.00 | 0.00 | 0.00 | 45 | 1011.7 |
| 20260830231525 | 96 | 149 | 4.0 | 7.0 | 0.00 | 0.00 | 0.00 | 45 | 1011.8 |
| 20260830231005 | 96 | 137 | 3.0 | 7.0 | 0.00 | 0.00 | 0.00 | 45 | 1011.7 |
| 20260830230504 | 96 | 119 | 2.0 | 7.0 | 0.00 | 0.00 | 0.00 | 44 | 1011.8 |
| 20260830230025 | 96 | 95 | 2.0 | 6.0 | 0.00 | 0.00 | 0.00 | 45 | 1011.7 |
| 20260830225504 | 96 | 78 | 3.0 | 6.0 | 0.00 | 0.00 | 0.00 | 45 | 1011.8 |
| 20260830225004 | 96 | 83 | 3.0 | 7.0 | 0.00 | 0.00 | 0.00 | 45 | 1011.9 |
| 20260830224504 | 96 | 90 | 3.0 | 7.0 | 0.00 | 0.00 | 0.00 | 45 | 1011.8 |
| 20260830224004 | 96 | 98 | 3.0 | 8.0 | 0.00 | 0.00 | 0.00 | 45 | 1011.8 |
| 20260830223504 | 96 | 109 | 3.0 | 8.0 | 0.00 | 0.00 | 0.00 | 44 | 1011.9 |
| 20260830223004 | 96 | 116 | 3.0 | 9.0 | 0.00 | 0.00 | 0.00 | 44 | 1011.9 |
| 20260830222505 | 97 | 119 | 4.0 | 9.0 | 0.00 | 0.00 | 0.00 | 43 | 1011.9 |
| 20260830222004 | 98 | 123 | 5.0 | 9.0 | 0.00 | 0.00 | 0.00 | 42 | 1011.9 |
| 20260830221504 | 99 | 111 | 5.0 | 12.0 | 0.00 | 0.00 | 0.00 | 42 | 1011.8 |
| 20260830221004 | 99 | 95 | 5.0 | 12.0 | 0.00 | 0.00 | 0.00 | 41 | 1011.8 |
| 20260830220504 | 99 | 104 | 5.0 | 11.0 | 0.00 | 0.00 | 0.00 | 41 | 1011.9 |
| 20260830220004 | 100 | 94 | 5.0 | 11.0 | 0.00 | 0.00 | 0.00 | 40 | 1011.8 |
| 20260830215525 | 99 | 96 | 4.0 | 11.0 | 0.00 | 0.00 | 0.00 | 41 | 1011.9 |
| 20260830215004 | 99 | 160 | 4.0 | 8.0 | 0.00 | 0.00 | 0.00 | 41 | 1011.9 |
| 20260830214504 | 98 | 121 | 4.0 | 9.0 | 0.00 | 0.00 | 0.00 | 41 | 1011.9 |
| 20260830214005 | 98 | 100 | 4.0 | 9.0 | 0.00 | 0.00 | 0.00 | 42 | 1012.0 |
| 20260830213504 | 99 | 91 | 5.0 | 18.0 | 0.00 | 0.00 | 0.00 | 42 | 1012.1 |
| 20260830213004 | 99 | 166 | 5.0 | 18.0 | 0.00 | 0.00 | 0.00 | 42 | 1012.1 |
| 20260830212504 | 98 | 178 | 4.0 | 8.0 | 0.00 | 0.00 | 0.00 | 42 | 1012.2 |
| 20260830212004 | 98 | 159 | 4.0 | 12.0 | 0.00 | 0.00 | 0.00 | 41 | 1012.3 |
| 20260830211504 | 97 | 133 | 3.0 | 12.0 | 0.00 | 0.00 | 0.00 | 43 | 1012.5 |
| 20260830211004 | 97 | 144 | 2.0 | 7.0 | 0.00 | 0.00 | 0.00 | 41 | 1012.6 |
| 20260830210525 | 97 | 152 | 3.0 | 8.0 | 0.00 | 0.00 | 0.00 | 41 | 1012.6 |
| 20260830210004 | 96 | 122 | 4.0 | 11.0 | 0.00 | 0.00 | 0.00 | 44 | 1012.9 |
| 20260830205504 | 97 | 103 | 5.0 | 11.0 | 0.00 | 0.00 | 0.00 | 42 | 1013.0 |
| 20260830205004 | 98 | 97 | 6.0 | 14.0 | 0.00 | 0.00 | 0.00 | 42 | 1013.0 |
| 20260830204504 | 98 | 117 | 5.0 | 14.0 | 0.00 | 0.00 | 0.00 | 40 | 1013.1 |
| 20260830204004 | 98 | 178 | 4.0 | 11.0 | 0.00 | 0.00 | 0.00 | 43 | 1013.2 |
| 20260830203525 | 97 | 174 | 5.0 | 11.0 | 0.00 | 0.00 | 0.00 | 43 | 1013.3 |
| 20260830203004 | 97 | 170 | 4.0 | 8.0 | 0.00 | 0.00 | 0.00 | 43 | 1013.4 |
| 20260830202504 | 97 | 188 | 4.0 | 10.0 | 0.00 | 0.00 | 0.00 | 43 | 1013.4 |
| 20260830202004 | 98 | 176 | 5.0 | 10.0 | 0.00 | 0.00 | 0.00 | 41 | 1013.6 |
| 20260830201504 | 97 | 149 | 4.0 | 10.0 | 0.00 | 0.00 | 0.00 | 43 | 1013.5 |
| 20260830201004 | 96 | 139 | 3.0 | 8.0 | 0.00 | 0.00 | 0.00 | 44 | 1013.7 |
| 20260830200504 | 96 | 149 | 4.0 | 11.0 | 0.00 | 0.00 | 0.00 | 44 | 1013.8 |
| 20260830200004 | 96 | 151 | 5.0 | 11.0 | 0.00 | 0.00 | 0.00 | 44 | 1013.9 |
| 20260830195504 | 96 | 150 | 3.0 | 9.0 | 0.00 | 0.00 | 0.00 | 45 | 1014.0 |
| 20260830195004 | 96 | 185 | 3.0 | 8.0 | 0.00 | 0.00 | 0.00 | 46 | 1014.0 |
| 20260830194509 | 95 | 185 | 6.0 | 10.0 | 0.00 | 0.00 | 0.00 | 46 | 1014.1 |
| 20260830194004 | 96 | 156 | 6.0 | 11.0 | 0.00 | 0.00 | 0.00 | 45 | 1014.2 |
| 20260830193504 | 95 | 109 | 4.0 | 11.0 | 0.00 | 0.00 | 0.00 | 46 | 1014.3 |
| 20260830193004 | 95 | 120 | 4.0 | 10.0 | 0.00 | 0.00 | 0.00 | 47 | 1014.3 |
| 20260830192525 | 95 | 139 | 3.0 | 10.0 | 0.00 | 0.00 | 0.00 | 47 | 1014.4 |
| 20260830192004 | 95 | 90 | 5.0 | 11.0 | 0.00 | 0.00 | 0.00 | 47 | 1014.5 |
| 20260830191504 | 96 | 97 | 5.0 | 11.0 | 0.00 | 0.00 | 0.00 | 48 | 1014.6 |
| 20260830191004 | 96 | 140 | 4.0 | 11.0 | 0.00 | 0.00 | 0.00 | 47 | 1014.7 |
| 20260830190504 | 96 | 133 | 6.0 | 12.0 | 0.00 | 0.00 | 0.00 | 48 | 1014.8 |
| 20260830190025 | 95 | 118 | 4.0 | 12.0 | 0.00 | 0.00 | 0.00 | 49 | 1014.8 |
| 20260830185525 | 94 | 135 | 3.0 | 8.0 | 0.00 | 0.00 | 0.00 | 51 | 1014.9 |
| 20260830185004 | 94 | 159 | 4.0 | 11.0 | 0.00 | 0.00 | 0.00 | 51 | 1015.0 |
| 20260830184504 | 94 | 157 | 5.0 | 11.0 | 0.00 | 0.00 | 0.00 | 49 | 1015.2 |
| 20260830184004 | 94 | 142 | 5.0 | 11.0 | 0.00 | 0.00 | 0.00 | 49 | 1015.2 |
| 20260830183504 | 95 | 115 | 4.0 | 9.0 | 0.00 | 0.00 | 0.00 | 49 | 1015.3 |
| 20260830183025 | 95 | 132 | 4.0 | 9.0 | 0.00 | 0.00 | 0.00 | 50 | 1015.4 |
| 20260830182504 | 95 | 158 | 5.0 | 12.0 | 0.00 | 0.00 | 0.00 | 48 | 1015.3 |
| 20260830182004 | 96 | 153 | 5.0 | 12.0 | 0.00 | 0.00 | 0.00 | 49 | 1015.4 |
| 20260830181504 | 95 | 147 | 4.0 | 9.0 | 0.00 | 0.00 | 0.00 | 50 | 1015.5 |
| 20260830181005 | 95 | 160 | 3.0 | 9.0 | 0.00 | 0.00 | 0.00 | 50 | 1015.6 |
| 20260830180504 | 94 | 182 | 3.0 | 9.0 | 0.00 | 0.00 | 0.00 | 50 | 1015.7 |
| 20260830180004 | 94 | 182 | 4.0 | 11.0 | 0.00 | 0.00 | 0.00 | 51 | 1015.8 |
| 20260830175505 | 94 | 146 | 5.0 | 11.0 | 0.00 | 0.00 | 0.00 | 52 | 1016.0 |
| 20260830175004 | 94 | 132 | 4.0 | 11.0 | 0.00 | 0.00 | 0.00 | 50 | 1016.1 |
| 20260830174504 | 93 | 176 | 6.0 | 15.0 | 0.00 | 0.00 | 0.00 | 51 | 1016.2 |
| 20260830174025 | 93 | 184 | 6.0 | 15.0 | 0.00 | 0.00 | 0.00 | 51 | 1016.2 |
| 20260830173504 | 93 | 166 | 4.0 | 10.0 | 0.00 | 0.00 | 0.00 | 53 | 1016.2 |
| 20260830173004 | 92 | 138 | 3.0 | 9.0 | 0.00 | 0.00 | 0.00 | 54 | 1016.4 |
| 20260830172525 | 92 | 133 | 4.0 | 8.0 | 0.00 | 0.00 | 0.00 | 54 | 1016.4 |
| 20260830172004 | 93 | 171 | 4.0 | 8.0 | 0.00 | 0.00 | 0.00 | 54 | 1016.5 |
| 20260830171525 | 93 | 190 | 4.0 | 9.0 | 0.00 | 0.00 | 0.00 | 54 | 1016.5 |
| 20260830171004 | 92 | 178 | 3.0 | 9.0 | 0.00 | 0.00 | 0.00 | 56 | 1016.6 |
| 20260830170504 | 92 | 183 | 2.0 | 6.0 | 0.00 | 0.00 | 0.00 | 56 | 1016.6 |
| 20260830170025 | 91 | 173 | 3.0 | 8.0 | 0.00 | 0.00 | 0.00 | 56 | 1016.6 |
| 20260830165504 | 92 | 181 | 5.0 | 13.0 | 0.00 | 0.00 | 0.00 | 56 | 1016.7 |
| 20260830165004 | 91 | 195 | 5.0 | 13.0 | 0.00 | 0.00 | 0.00 | 55 | 1016.7 |
| 20260830164504 | 91 | 205 | 4.0 | 10.0 | 0.00 | 0.00 | 0.00 | 58 | 1016.7 |
| 20260830164004 | 91 | 190 | 5.0 | 10.0 | 0.00 | 0.00 | 0.00 | 60 | 1016.8 |
| 20260830163504 | 91 | 187 | 4.0 | 8.0 | 0.00 | 0.00 | 0.00 | 60 | 1016.9 |
| 20260830163025 | 90 | 199 | 4.0 | 8.0 | 0.00 | 0.00 | 0.00 | 60 | 1016.9 |
| 20260830162505 | 88 | 210 | 5.0 | 9.0 | 0.00 | 0.00 | 0.00 | 61 | 1016.9 |
| 20260830162004 | 88 | 224 | 4.0 | 9.0 | 0.00 | 0.00 | 0.00 | 64 | 1017.0 |
| 20260830161504 | 88 | 201 | 4.0 | 6.0 | 0.00 | 0.00 | 0.00 | 64 | 1016.9 |
| 20260830161004 | 88 | 194 | 4.0 | 7.0 | 0.00 | 0.00 | 0.00 | 65 | 1016.9 |
| 20260830160504 | 87 | 204 | 4.0 | 7.0 | 0.00 | 0.00 | 0.00 | 67 | 1016.9 |
| 20260830160004 | 87 | 205 | 4.0 | 8.0 | 0.00 | 0.00 | 0.00 | 68 | 1016.9 |
| 20260830155504 | 87 | 218 | 4.0 | 10.0 | 0.00 | 0.00 | 0.00 | 68 | 1017.0 |
| 20260830155004 | 88 | 214 | 6.0 | 11.0 | 0.00 | 0.00 | 0.00 | 68 | 1017.0 |
| 20260830154504 | 87 | 209 | 5.0 | 11.0 | 0.00 | 0.00 | 0.00 | 69 | 1016.9 |
| 20260830154004 | 87 | 217 | 5.0 | 10.0 | 0.00 | 0.00 | 0.00 | 70 | 1017.0 |
| 20260830153504 | 86 | 220 | 5.0 | 10.0 | 0.00 | 0.00 | 0.00 | 70 | 1016.9 |
| 20260830153025 | 86 | 227 | 4.0 | 9.0 | 0.00 | 0.00 | 0.00 | 72 | 1017.0 |
| 20260830152525 | 86 | 233 | 4.0 | 10.0 | 0.00 | 0.00 | 0.00 | 74 | 1017.0 |
| 20260830152005 | 85 | 214 | 5.0 | 10.0 | 0.00 | 0.00 | 0.00 | 74 | 1016.9 |
| 20260830151504 | 85 | 202 | 4.0 | 9.0 | 0.00 | 0.00 | 0.00 | 76 | 1017.0 |
| 20260830151004 | 85 | 203 | 4.0 | 9.0 | 0.00 | 0.00 | 0.00 | 75 | 1016.9 |
| 20260830150504 | 84 | 216 | 5.0 | 9.0 | 0.00 | 0.00 | 0.00 | 77 | 1016.9 |
| 20260830150005 | 84 | 220 | 5.0 | 9.0 | 0.00 | 0.00 | 0.00 | 77 | 1016.9 |
| 20260830145504 | 84 | 212 | 4.0 | 9.0 | 0.00 | 0.00 | 0.00 | 79 | 1016.8 |
| 20260830145004 | 84 | 198 | 4.0 | 7.0 | 0.00 | 0.00 | 0.00 | 80 | 1016.9 |
| 20260830144504 | 83 | 191 | 4.0 | 8.0 | 0.00 | 0.00 | 0.00 | 81 | 1016.9 |
| 20260830144004 | 82 | 189 | 4.0 | 9.0 | 0.00 | 0.00 | 0.00 | 82 | 1017.0 |
| 20260830143504 | 82 | 185 | 4.0 | 10.0 | 0.00 | 0.00 | 0.00 | 84 | 1017.0 |
| 20260830143004 | 82 | 198 | 4.0 | 10.0 | 0.00 | 0.00 | 0.00 | 84 | 1016.9 |
| 20260830142504 | 82 | 194 | 3.0 | 8.0 | 0.00 | 0.00 | 0.00 | 84 | 1017.0 |
| 20260830142004 | 81 | 177 | 1.0 | 6.0 | 0.00 | 0.00 | 0.00 | 85 | 1017.0 |
| 20260830141504 | 81 | 195 | 1.0 | 4.0 | 0.00 | 0.00 | 0.00 | 86 | 1016.9 |
| 20260830141004 | 80 | 133 | 1.0 | 4.0 | 0.00 | 0.00 | 0.00 | 85 | 1016.9 |
| 20260830140504 | 80 | 69 | 1.0 | 4.0 | 0.00 | 0.00 | 0.00 | 87 | 1016.8 |
| 20260830140004 | 80 | 69 | 0.0 | 3.0 | 0.00 | 0.00 | 0.00 | 88 | 1016.7 |
| 20260830135504 | 79 | 69 | 0.0 | 2.0 | 0.00 | 0.00 | 0.00 | 89 | 1016.9 |
| 20260830135004 | 78 | 69 | 0.0 | 2.0 | 0.00 | 0.00 | 0.00 | 90 | 1016.9 |
| 20260830134504 | 78 | 69 | 0.0 | 2.0 | 0.00 | 0.00 | 0.00 | 90 | 1016.7 |
| 20260830134004 | 77 | 69 | 0.0 | 2.0 | 0.00 | 0.00 | 0.00 | 89 | 1016.7 |
| 20260830133504 | 77 | 69 | 1.0 | 2.0 | 0.00 | 0.00 | 0.00 | 89 | 1016.7 |
| 20260830133004 | 77 | 69 | 1.0 | 3.0 | 0.00 | 0.00 | 0.00 | 89 | 1016.7 |
| 20260830132504 | 77 | 69 | 1.0 | 3.0 | 0.00 | 0.00 | 0.00 | 89 | 1016.7 |
| 20260830132025 | 76 | 69 | 2.0 | 3.0 | 0.00 | 0.00 | 0.00 | 89 | 1016.6 |
| 20260830131504 | 76 | 69 | 2.0 | 3.0 | 0.00 | 0.00 | 0.00 | 89 | 1016.6 |
| 20260830131005 | 76 | 78 | 1.0 | 3.0 | 0.00 | 0.00 | 0.00 | 90 | 1016.5 |
| 20260830130504 | 75 | 148 | 0.0 | 2.0 | 0.00 | 0.00 | 0.00 | 91 | 1016.6 |
| 20260830130004 | 75 | 179 | 0.0 | 1.0 | 0.00 | 0.00 | 0.00 | 91 | 1016.6 |
| 20260830125504 | 75 | 179 | 0.0 | 1.0 | 0.00 | 0.00 | 0.00 | 92 | 1016.5 |
| 20260830125004 | 75 | 179 | 0.0 | 1.0 | 0.00 | 0.00 | 0.00 | 92 | 1016.5 |
| 20260830124504 | 75 | 0 | 0.0 | 0.0 | 0.00 | 0.00 | 0.00 | 92 | 1016.4 |
| 20260830124004 | 74 | 0 | 0.0 | 0.0 | 0.00 | 0.00 | 0.00 | 92 | 1016.3 |
| 20260830123503 | 74 | 0 | 0.0 | 0.0 | 0.00 | 0.00 | 0.00 | 92 | 1016.4 |
| 20260830123025 | 74 | 0 | 0.0 | 0.0 | 0.00 | 0.00 | 0.00 | 92 | 1016.2 |
| 20260830122504 | 74 | 0 | 0.0 | 0.0 | 0.00 | 0.00 | 0.00 | 92 | 1016.2 |
| 20260830122004 | 74 | 0 | 0.0 | 0.0 | 0.00 | 0.00 | 0.00 | 91 | 1016.1 |
| 20260830121504 | 73 | 0 | 0.0 | 0.0 | 0.00 | 0.00 | 0.00 | 91 | 1016.1 |
| 20260830121004 | 73 | 0 | 0.0 | 0.0 | 0.00 | 0.00 | 0.00 | 90 | 1016.1 |
| 20260830120504 | 73 | 0 | 0.0 | 0.0 | 0.00 | 0.00 | 0.00 | 90 | 1015.9 |
| 20260830120004 | 73 | 0 | 0.0 | 0.0 | 0.00 | 0.00 | 0.00 | 90 | 1016.0 |
| 20260830115503 | 73 | 0 | 0.0 | 0.0 | 0.00 | 0.00 | 0.00 | 89 | 1015.8 |
| 20260830115004 | 73 | 0 | 0.0 | 0.0 | 0.00 | 0.00 | 0.00 | 89 | 1015.9 |
| 20260830114526 | 73 | 0 | 0.0 | 0.0 | 0.00 | 0.00 | 0.00 | 89 | 1015.9 |
| 20260830114004 | 74 | 0 | 0.0 | 0.0 | 0.00 | 0.00 | 0.00 | 90 | 1016.0 |
| 20260830113504 | 74 | 0 | 0.0 | 0.0 | 0.00 | 0.00 | 0.00 | 90 | 1015.8 |
| 20260830113004 | 74 | 179 | 0.0 | 1.0 | 0.00 | 0.00 | 0.00 | 91 | 1016.0 |
| 20260830112524 | 74 | 179 | 0.0 | 1.0 | 0.00 | 0.00 | 0.00 | 91 | 1016.1 |
| 20260830112004 | 74 | 0 | 0.0 | 0.0 | 0.00 | 0.00 | 0.00 | 90 | 1015.9 |
| 20260830111504 | 74 | 0 | 0.0 | 0.0 | 0.00 | 0.00 | 0.00 | 89 | 1016.0 |
| 20260830111004 | 74 | 0 | 0.0 | 0.0 | 0.00 | 0.00 | 0.00 | 89 | 1015.9 |
| 20260830110505 | 74 | 0 | 0.0 | 0.0 | 0.00 | 0.00 | 0.00 | 89 | 1015.9 |
| 20260830110005 | 74 | 0 | 0.0 | 0.0 | 0.00 | 0.00 | 0.00 | 88 | 1015.7 |
| 20260830105503 | 74 | 0 | 0.0 | 0.0 | 0.00 | 0.00 | 0.00 | 89 | 1015.8 |
| 20260830105004 | 74 | 0 | 0.0 | 0.0 | 0.00 | 0.00 | 0.00 | 89 | 1015.7 |
| 20260830104504 | 75 | 179 | 0.0 | 1.0 | 0.00 | 0.00 | 0.00 | 90 | 1015.7 |
| 20260830104004 | 74 | 179 | 0.0 | 1.0 | 0.00 | 0.00 | 0.00 | 90 | 1015.7 |
| 20260830103504 | 74 | 0 | 0.0 | 0.0 | 0.00 | 0.00 | 0.00 | 89 | 1015.8 |
| 20260830103004 | 74 | 0 | 0.0 | 0.0 | 0.00 | 0.00 | 0.00 | 89 | 1015.7 |
| 20260830102504 | 74 | 0 | 0.0 | 0.0 | 0.00 | 0.00 | 0.00 | 89 | 1015.7 |
| 20260830102004 | 74 | 0 | 0.0 | 0.0 | 0.00 | 0.00 | 0.00 | 89 | 1015.7 |
| 20260830101503 | 74 | 179 | 0.0 | 1.0 | 0.00 | 0.00 | 0.00 | 89 | 1015.6 |
| 20260830101025 | 74 | 179 | 0.0 | 1.0 | 0.00 | 0.00 | 0.00 | 89 | 1015.6 |
| 20260830100504 | 74 | 0 | 0.0 | 0.0 | 0.00 | 0.00 | 0.00 | 89 | 1015.6 |
| 20260830100004 | 74 | 179 | 0.0 | 1.0 | 0.00 | 0.00 | 0.00 | 88 | 1015.6 |
| 20260830095503 | 74 | 179 | 0.0 | 1.0 | 0.00 | 0.00 | 0.00 | 88 | 1015.5 |
| 20260830095003 | 74 | 179 | 0.0 | 1.0 | 0.00 | 0.00 | 0.00 | 87 | 1015.5 |
| 20260830094504 | 75 | 0 | 0.0 | 0.0 | 0.00 | 0.00 | 0.00 | 87 | 1015.5 |
| 20260830094004 | 75 | 0 | 0.0 | 0.0 | 0.00 | 0.00 | 0.00 | 87 | 1015.7 |
| 20260830093504 | 75 | 0 | 0.0 | 0.0 | 0.00 | 0.00 | 0.00 | 86 | 1015.5 |
| 20260830093004 | 76 | 0 | 0.0 | 0.0 | 0.00 | 0.00 | 0.00 | 87 | 1015.7 |
| 20260830092525 | 76 | 0 | 0.0 | 0.0 | 0.00 | 0.00 | 0.00 | 87 | 1015.7 |
| 20260830092004 | 76 | 0 | 0.0 | 0.0 | 0.00 | 0.00 | 0.00 | 87 | 1015.7 |
| 20260830091503 | 76 | 0 | 0.0 | 0.0 | 0.00 | 0.00 | 0.00 | 86 | 1015.7 |
| 20260830091025 | 76 | 0 | 0.0 | 0.0 | 0.00 | 0.00 | 0.00 | 86 | 1015.6 |
| 20260830090504 | 76 | 0 | 0.0 | 0.0 | 0.00 | 0.00 | 0.00 | 86 | 1015.7 |
| 20260830090005 | 76 | 0 | 0.0 | 0.0 | 0.00 | 0.00 | 0.00 | 86 | 1015.6 |
| 20260830085504 | 76 | 0 | 0.0 | 0.0 | 0.00 | 0.00 | 0.00 | 86 | 1015.7 |
| 20260830085004 | 76 | 0 | 0.0 | 0.0 | 0.00 | 0.00 | 0.00 | 85 | 1015.7 |
| 20260830084504 | 76 | 0 | 0.0 | 0.0 | 0.00 | 0.00 | 0.00 | 85 | 1015.7 |
| 20260830084003 | 77 | 0 | 0.0 | 0.0 | 0.00 | 0.00 | 0.00 | 85 | 1015.8 |
| 20260830083503 | 77 | 0 | 0.0 | 0.0 | 0.00 | 0.00 | 0.00 | 84 | 1015.8 |
| 20260830083003 | 77 | 0 | 0.0 | 0.0 | 0.00 | 0.00 | 0.00 | 83 | 1015.9 |
| 20260830082504 | 77 | 0 | 0.0 | 0.0 | 0.00 | 0.00 | 0.00 | 83 | 1015.9 |
| 20260830082004 | 77 | 0 | 0.0 | 0.0 | 0.00 | 0.00 | 0.00 | 83 | 1015.9 |
| 20260830081504 | 77 | 0 | 0.0 | 0.0 | 0.00 | 0.00 | 0.00 | 83 | 1015.8 |
| 20260830081004 | 78 | 0 | 0.0 | 0.0 | 0.00 | 0.00 | 0.00 | 83 | 1015.9 |
| 20260830080503 | 78 | 179 | 0.0 | 1.0 | 0.00 | 0.00 | 0.00 | 83 | 1015.8 |
| 20260830080004 | 78 | 179 | 0.0 | 1.0 | 0.00 | 0.00 | 0.00 | 83 | 1015.8 |
| 20260830075504 | 78 | 179 | 0.0 | 1.0 | 0.00 | 0.00 | 0.00 | 82 | 1015.8 |
| 20260830075004 | 78 | 179 | 0.0 | 1.0 | 0.00 | 0.00 | 0.00 | 82 | 1015.8 |
| 20260830074525 | 78 | 179 | 0.0 | 1.0 | 0.00 | 0.00 | 0.00 | 82 | 1016.0 |
| 20260830074004 | 78 | 179 | 0.0 | 2.0 | 0.00 | 0.00 | 0.00 | 82 | 1016.0 |
| 20260830073503 | 78 | 179 | 0.0 | 2.0 | 0.00 | 0.00 | 0.00 | 81 | 1016.0 |
| 20260830073025 | 78 | 179 | 0.0 | 1.0 | 0.00 | 0.00 | 0.00 | 81 | 1016.0 |
| 20260830072504 | 78 | 179 | 0.0 | 2.0 | 0.00 | 0.00 | 0.00 | 81 | 1016.0 |
| 20260830072004 | 78 | 179 | 0.0 | 2.0 | 0.00 | 0.00 | 0.00 | 81 | 1016.1 |
| 20260830071504 | 78 | 0 | 0.0 | 0.0 | 0.00 | 0.00 | 0.00 | 80 | 1016.2 |
| 20260830071025 | 78 | 179 | 0.0 | 1.0 | 0.00 | 0.00 | 0.00 | 80 | 1016.1 |
| 20260830070504 | 78 | 179 | 0.0 | 3.0 | 0.00 | 0.00 | 0.00 | 80 | 1016.2 |
| 20260830070004 | 79 | 176 | 1.0 | 3.0 | 0.00 | 0.00 | 0.00 | 79 | 1016.2 |
| 20260830065504 | 79 | 176 | 1.0 | 3.0 | 0.00 | 0.00 | 0.00 | 79 | 1016.1 |
| 20260830065025 | 79 | 190 | 1.0 | 4.0 | 0.00 | 0.00 | 0.00 | 79 | 1016.1 |
| 20260830064504 | 79 | 199 | 1.0 | 5.0 | 0.00 | 0.00 | 0.00 | 78 | 1016.1 |
| 20260830064004 | 79 | 205 | 1.0 | 5.0 | 0.00 | 0.00 | 0.00 | 78 | 1016.1 |
| 20260830063504 | 79 | 205 | 1.0 | 3.0 | 0.00 | 0.00 | 0.00 | 78 | 1016.1 |
| 20260830063003 | 80 | 198 | 1.0 | 3.0 | 0.00 | 0.00 | 0.00 | 77 | 1016.1 |
| 20260830062504 | 80 | 181 | 0.0 | 3.0 | 0.00 | 0.00 | 0.00 | 77 | 1016.2 |
| 20260830062004 | 80 | 192 | 1.0 | 5.0 | 0.00 | 0.00 | 0.00 | 76 | 1016.2 |
| 20260830061525 | 80 | 191 | 2.0 | 5.0 | 0.00 | 0.00 | 0.00 | 76 | 1016.2 |
| 20260830061024 | 80 | 191 | 2.0 | 5.0 | 0.00 | 0.00 | 0.00 | 76 | 1016.2 |
| 20260830060503 | 80 | 180 | 2.0 | 6.0 | 0.00 | 0.00 | 0.00 | 76 | 1016.1 |
| 20260830060004 | 80 | 173 | 3.0 | 8.0 | 0.00 | 0.00 | 0.00 | 75 | 1016.1 |
| 20260830055503 | 81 | 168 | 3.0 | 8.0 | 0.00 | 0.00 | 0.00 | 75 | 1016.1 |
| 20260830055004 | 81 | 174 | 3.0 | 6.0 | 0.00 | 0.00 | 0.00 | 75 | 1016.1 |
| 20260830054525 | 81 | 177 | 3.0 | 6.0 | 0.00 | 0.00 | 0.00 | 74 | 1016.1 |
| 20260830054004 | 81 | 168 | 3.0 | 9.0 | 0.00 | 0.00 | 0.00 | 74 | 1016.0 |
| 20260830053503 | 81 | 163 | 3.0 | 9.0 | 0.00 | 0.00 | 0.00 | 73 | 1015.8 |
| 20260830053004 | 81 | 165 | 3.0 | 7.0 | 0.00 | 0.00 | 0.00 | 73 | 1016.0 |
| 20260830052503 | 81 | 173 | 3.0 | 7.0 | 0.00 | 0.00 | 0.00 | 73 | 1016.1 |
| 20260830052003 | 82 | 173 | 3.0 | 7.0 | 0.00 | 0.00 | 0.00 | 72 | 1016.0 |
| 20260830051503 | 82 | 165 | 3.0 | 6.0 | 0.00 | 0.00 | 0.00 | 72 | 1015.9 |
| 20260830051003 | 82 | 160 | 3.0 | 7.0 | 0.00 | 0.00 | 0.00 | 71 | 1016.0 |
| 20260830050504 | 82 | 163 | 3.0 | 7.0 | 0.00 | 0.00 | 0.00 | 71 | 1016.1 |
| 20260830050004 | 82 | 165 | 3.0 | 7.0 | 0.00 | 0.00 | 0.00 | 71 | 1016.0 |
| 20260830045503 | 82 | 163 | 3.0 | 6.0 | 0.00 | 0.00 | 0.00 | 70 | 1016.1 |
| 20260830045003 | 83 | 167 | 3.0 | 6.0 | 0.00 | 0.00 | 0.00 | 70 | 1016.1 |
| 20260830044525 | 83 | 169 | 3.0 | 7.0 | 0.00 | 0.00 | 0.00 | 70 | 1016.0 |
| 20260830044024 | 83 | 165 | 3.0 | 8.0 | 0.00 | 0.00 | 0.00 | 69 | 1016.0 |
| 20260830043504 | 83 | 160 | 4.0 | 8.0 | 0.00 | 0.00 | 0.00 | 69 | 1015.9 |
| 20260830043004 | 83 | 159 | 4.0 | 7.0 | 0.00 | 0.00 | 0.00 | 69 | 1015.9 |
| 20260830042503 | 83 | 156 | 3.0 | 6.0 | 0.00 | 0.00 | 0.00 | 69 | 1015.9 |
| 20260830042003 | 84 | 160 | 3.0 | 5.0 | 0.00 | 0.00 | 0.00 | 68 | 1015.8 |
| 20260830041504 | 84 | 160 | 3.0 | 9.0 | 0.00 | 0.00 | 0.00 | 68 | 1015.8 |
| 20260830041004 | 84 | 159 | 5.0 | 9.0 | 0.00 | 0.00 | 0.00 | 67 | 1016.0 |
| 20260830040504 | 84 | 162 | 5.0 | 10.0 | 0.00 | 0.00 | 0.00 | 67 | 1015.9 |
| 20260830040004 | 84 | 163 | 5.0 | 10.0 | 0.00 | 0.00 | 0.00 | 67 | 1015.9 |
| 20260830035503 | 85 | 157 | 5.0 | 10.0 | 0.00 | 0.00 | 0.00 | 67 | 1015.8 |
| 20260830035004 | 85 | 156 | 4.0 | 10.0 | 0.00 | 0.00 | 0.00 | 67 | 1015.8 |
| 20260830034503 | 85 | 164 | 4.0 | 8.0 | 0.00 | 0.00 | 0.00 | 66 | 1015.6 |